Location: Unspecified
(44.5899°N, 128.9834°E)
Time: 02:39:50
(UTC+08:00)

Resurs 01 Rocket - Visible Passes

Search period start: 24 May 2017 00:00
Search period end: 03 June 2017 00:00
Orbit: 634 x 645 km, 98.2° (Epoch: 22 May)

Date Brightness Start Highest point End Pass type
(mag) Time Alt. Az. Time Alt. Az. Time Alt. Az.
24 May 3.8 19:37:20 10° SSW 19:41:03 26° W 19:44:47 10° NW visible
25 May 4.3 20:01:58 10° SW 20:04:35 15° W 20:07:13 10° NW visible
28 May 3.6 19:34:06 10° SSW 19:37:55 28° W 19:41:44 10° NW visible
29 May 4.3 19:58:36 10° SW 20:01:27 17° W 20:04:16 10° NW visible
01 Jun 3.5 19:30:52 10° SSW 19:34:46 30° W 19:38:41 10° NW visible
02 Jun 4.2 19:55:16 10° SW 19:58:17 18° W 20:01:19 10° NW visible
